Theta_e
317 319 318 319 319 319 320 321 321 322 321 321 320 321 322 321 322 322 322 321 321 321 320 319 317 315 311 308 306 306 303 300 298 299 300 300 301 303 305 306 306 306
317 320 321 321 320 320 319 320 320 322 322 322 321 322 322 321 321 321 321 320 320 320 320 319 317 314 311 309 307 306 304 301 299 299 299 300 302 304 306 306 306 306
318 320 322 322 322 321 319 318 319 320 320 320 320 320 320 320 321 321 321 320 320 319 319 317 316 313 310 308 307 306 303 301 299 299 299 301 304 305 307 306 306 305
318 319 320 321 322 321 319 317 317 317 318 318 318 318 319 319 319 319 320 319 319 318 317 316 314 311 308 306 305 303 301 300 299 300 301 304 305 306 306 306 305 304
319 318 317 319 320 320 318 316 315 316 317 317 318 319 319 318 317 317 318 318 317 316 315 314 312 308 306 304 302 301 300 300 301 302 304 305 306 306 306 305 303 301
317 316 316 317 318 318 317 316 315 315 316 317 318 318 317 317 316 316 316 316 316 315 313 311 309 306 304 303 301 301 301 302 303 305 306 306 306 305 304 301 298 295
315 315 314 315 316 316 316 316 315 314 315 316 316 316 316 316 315 315 315 315 314 313 312 309 307 306 304 302 302 302 302 304 305 306 306 306 304 302 299 296 294 293
315 314 313 312 314 314 314 315 315 314 314 314 314 315 315 314 314 314 313 313 312 311 310 308 307 305 303 302 302 303 304 305 306 306 305 304 301 297 295 294 293 293
315 314 312 311 312 313 314 314 314 313 313 313 313 313 313 313 313 312 312 312 311 310 310 308 305 304 303 302 303 304 305 306 305 305 303 300 298 296 295 294 293 292
314 315 313 311 312 313 313 314 314 313 312 312 311 311 311 312 311 311 311 310 310 309 308 307 304 302 302 303 304 305 305 305 304 303 301 299 297 296 294 293 291 291
313 314 312 311 312 313 313 312 312 311 311 311 310 310 311 311 310 310 310 309 309 308 306 304 302 302 302 303 304 305 304 303 303 301 300 298 296 294 292 291 290 290
309 311 312 311 312 312 312 312 310 309 310 310 310 310 310 310 310 310 309 308 308 306 304 302 301 301 303 304 304 304 303 303 301 299 298 296 293 291 290 290 290 290
306 309 312 311 312 312 312 311 309 308 309 310 310 310 310 310 310 309 308 307 305 303 302 301 301 302 303 304 304 304 303 303 300 297 294 292 291 291 290 290 290 290
304 306 309 310 311 312 311 310 309 309 309 309 309 309 309 309 308 307 306 304 302 301 301 301 301 303 304 304 304 304 303 301 298 295 293 292 291 291 290 290 290 290
304 303 306 309 311 310 310 309 309 309 309 309 308 308 308 307 306 305 303 302 300 300 300 301 302 303 304 304 305 305 303 300 296 293 292 292 291 290 290 290 290 290
303 302 303 307 309 309 309 309 309 309 308 308 307 307 306 306 304 303 302 301 301 300 300 301 303 304 304 305 305 305 302 297 293 292 291 291 290 290 290 290 290 290
302 301 302 305 307 308 309 309 309 308 307 306 306 306 305 304 303 301 301 300 301 300 301 302 304 305 305 304 303 301 297 293 291 291 290 290 290 290 290 291 291 291
303 302 301 303 306 307 308 308 307 306 305 305 305 305 304 304 303 301 300 300 300 300 301 303 304 304 304 303 302 298 293 290 290 290 290 290 290 290 290 290 290 290
302 302 302 302 304 306 307 307 307 305 305 304 304 304 304 303 301 300 300 300 299 299 301 303 304 304 304 303 301 296 292 290 290 290 289 289 289 290 290 291 291 291
300 302 302 302 304 306 306 307 306 305 304 304 304 304 303 302 301 300 300 299 298 299 301 303 304 304 303 302 300 295 291 289 289 289 289 289 289 290 290 290 291 291
300 302 303 303 304 305 306 306 305 304 304 304 304 304 303 301 300 300 299 298 297 298 301 303 304 303 302 301 298 293 290 289 290 290 290 290 290 290 290 290 290 290
300 302 303 303 304 305 306 305 305 304 304 303 303 303 302 300 300 299 298 297 297 298 301 303 304 303 302 301 297 292 290 289 290 290 290 290 290 290 290 290 290 289
301 302 302 303 304 306 306 306 305 304 304 303 303 302 301 300 300 299 298 296 296 298 301 303 303 303 302 300 296 292 290 290 290 290 290 290 291 290 290 290 290 289
301 301 301 303 305 307 306 306 305 304 304 303 303 302 300 299 299 298 297 296 296 298 300 302 303 303 302 300 297 293 291 290 290 290 290 290 290 290 289 289 289 288
300 299 301 304 306 306 306 305 305 305 304 303 301 300 299 299 298 297 296 296 296 298 300 302 303 303 302 300 298 294 292 291 291 290 290 290 290 290 289 289 289 288
300 299 301 303 304 304 304 304 305 304 304 303 301 299 299 298 298 297 296 296 296 297 299 301 302 302 302 300 298 295 292 291 291 290 290 290 290 290 289 289 289 289
Wind_Speed
39 39 39 39 42 42 40 41 41 40 37 33 33 35 35 36 36 33 31 31 31 30 28 26 25 27 29 31 31 32 32 31 32 33 33 31 28 26 27 28 27 26
45 43 42 43 42 42 42 43 43 40 38 35 35 38 37 35 32 28 26 27 29 28 27 26 25 26 29 30 32 32 32 33 33 33 31 29 28 28 29 28 27 26
47 46 44 43 42 42 43 44 42 40 38 37 36 35 33 31 29 27 26 27 27 28 27 27 26 27 28 29 30 30 31 32 32 32 31 30 30 29 28 26 26 24
46 46 45 44 42 42 43 43 42 40 38 36 35 32 30 30 30 30 30 29 29 28 28 27 26 27 28 29 29 30 31 31 32 31 31 30 29 27 26 25 24 23
45 44 44 43 43 43 43 42 41 40 38 37 35 32 31 32 31 30 30 30 30 29 27 26 26 27 28 29 31 31 31 31 32 31 30 28 27 26 25 24 23 22
46 45 44 43 43 43 42 42 41 40 38 37 35 34 33 33 31 30 29 30 30 28 27 27 28 29 30 30 31 31 30 30 30 29 28 27 26 25 24 23 22 21
47 46 45 43 42 42 41 41 40 38 37 36 36 35 34 33 32 30 30 30 29 28 27 28 29 30 30 30 30 30 29 29 29 28 27 26 25 24 24 23 22 20
48 46 44 43 42 41 41 40 40 38 37 36 36 34 33 33 32 31 30 30 29 28 28 29 30 30 30 29 29 29 29 29 29 28 26 25 25 25 24 23 21 20
49 47 44 43 42 41 41 41 41 39 37 36 35 34 34 34 32 32 32 30 29 29 30 30 31 30 29 29 29 30 30 29 28 27 25 25 25 25 23 22 21 20
50 48 45 43 42 40 40 41 41 39 37 36 35 35 35 34 33 33 33 32 31 32 32 32 32 31 30 30 30 30 29 28 27 26 25 25 24 23 22 21 21 20
50 48 45 43 42 40 40 41 40 39 38 37 37 36 36 36 36 35 34 34 34 34 34 34 32 32 32 31 30 29 28 27 26 25 25 25 24 23 22 21 20 19
48 48 46 44 42 41 41 41 40 39 39 39 39 38 38 38 38 37 36 36 35 35 35 34 33 32 32 31 29 29 27 26 25 25 25 24 24 24 23 22 20 20
47 48 47 44 42 42 41 40 39 40 40 40 40 40 39 39 39 38 37 37 36 36 34 33 33 32 31 30 29 28 26 25 25 26 26 25 25 25 24 22 21 20
47 46 44 42 42 42 41 40 40 40 40 40 41 41 40 39 39 38 38 37 35 34 34 33 33 32 31 29 27 26 25 25 26 26 27 27 27 26 24 23 22 21
45 44 44 43 43 42 41 40 41 40 41 41 41 41 40 39 39 38 37 36 36 35 35 34 33 32 30 28 26 26 26 27 27 28 29 28 28 27 25 23 22 21
44 44 45 44 43 42 41 41 40 41 42 42 41 40 40 39 38 37 36 36 37 37 36 34 33 32 29 28 28 28 28 29 30 30 30 29 28 26 24 23 22 21
43 43 44 44 43 42 41 39 39 41 42 42 41 40 40 39 37 37 37 38 38 37 36 35 34 32 30 30 30 29 29 29 30 30 29 28 26 25 23 23 23 22
42 42 42 42 41 40 38 38 40 41 42 41 41 41 40 39 39 39 40 39 39 37 36 36 34 32 31 31 30 30 30 29 29 29 28 28 26 25 24 24 24 24
41 42 42 41 39 38 37 38 40 41 41 40 41 40 40 41 41 41 41 41 40 39 37 35 33 32 31 30 30 31 31 31 30 29 28 27 26 26 25 25 25 25
40 41 40 39 37 36 37 39 40 40 40 40 40 40 41 42 43 43 42 42 41 40 38 35 34 32 31 30 31 31 31 31 31 30 29 29 27 27 27 27 26 26
39 39 39 37 36 37 38 39 39 39 40 40 40 40 42 43 44 44 44 43 42 40 38 36 34 32 31 31 30 31 31 31 31 30 31 30 29 29 29 28 28 28
39 38 39 38 37 37 38 39 39 40 41 41 41 41 43 44 45 45 45 44 43 41 38 36 34 32 31 31 30 30 31 32 32 32 32 31 31 31 31 30 30 30
39 39 39 38 36 36 38 39 39 41 41 42 42 43 45 46 46 45 45 45 43 40 37 35 34 32 31 31 31 32 33 33 33 34 34 33 33 32 32 32 32 32
39 39 38 37 35 36 36 37 39 41 42 42 43 45 47 47 46 46 45 44 41 39 37 35 33 32 32 32 32 32 34 34 35 35 35 35 35 34 34 35 34 34
39 39 38 36 35 35 35 36 38 40 42 43 45 46 46 45 45 45 44 43 41 38 36 34 32 32 32 32 33 33 35 35 36 37 37 36 36 37 37 37 37 36
40 40 39 38 37 35 35 37 39 42 44 44 45 44 43 43 43 43 42 40 39 37 36 35 34 34 34 34 35 35 37 37 38 38 38 38 38 38 38 38 37 37
Wind_Direction
230 225 221 227 230 231 232 233 231 228 225 224 227 230 233 237 238 238 237 231 227 226 226 226 225 223 219 214 210 210 209 206 206 209 211 214 219 226 233 237 239 237
220 223 225 230 231 231 230 230 231 232 231 229 230 231 232 234 234 234 234 231 227 227 228 227 224 222 220 216 212 211 210 208 208 209 211 216 223 230 234 237 236 233
213 215 221 226 229 230 230 228 228 230 233 232 232 233 231 227 223 224 228 226 225 226 225 222 221 219 217 215 212 211 210 209 209 210 215 222 228 232 235 235 233 229
216 215 217 221 225 226 227 227 225 225 225 226 228 227 223 218 214 215 218 218 218 219 218 216 216 214 211 209 208 208 207 208 211 216 221 226 229 230 231 230 227 226
220 221 220 220 221 223 223 224 224 221 219 218 218 216 215 215 213 212 213 213 212 212 212 212 211 209 207 205 205 205 206 210 215 220 223 225 227 227 227 225 223 225
219 221 221 220 220 221 221 220 220 218 216 214 212 210 212 214 212 211 212 211 209 209 209 209 207 206 205 204 204 205 209 214 218 220 221 222 224 225 224 222 221 222
220 219 220 220 219 220 219 219 219 217 215 213 212 210 210 212 211 210 209 208 208 208 207 207 206 205 203 202 203 207 211 215 217 218 219 219 220 220 220 219 218 220
222 220 219 218 217 218 218 218 217 216 214 214 213 211 210 211 209 207 206 206 206 206 206 206 205 203 201 201 204 208 211 213 215 216 217 218 217 216 216 217 218 220
222 220 218 217 216 216 216 216 216 214 212 212 212 210 209 208 206 204 203 203 204 205 206 205 202 200 200 202 205 209 211 213 215 216 216 216 216 216 216 217 219 220
222 221 219 217 216 217 217 215 214 212 209 207 207 208 207 204 202 202 202 202 202 203 203 202 199 198 200 203 206 209 212 214 216 216 215 215 217 218 218 217 217 218
221 221 220 217 216 217 218 216 214 211 207 204 204 205 204 202 201 202 201 201 201 201 201 199 197 198 201 203 207 209 212 215 216 216 216 216 215 215 214 214 215 216
218 219 219 217 216 216 217 216 213 209 206 204 203 202 201 201 201 201 200 200 200 199 198 198 197 199 202 204 207 210 212 213 214 215 216 215 213 211 210 210 211 213
216 218 219 217 215 216 216 215 212 210 207 203 202 202 201 201 201 200 199 198 198 197 197 197 199 201 203 206 208 211 212 212 213 214 213 211 210 211 210 209 210 211
217 217 217 216 215 215 215 213 211 210 207 203 202 202 201 201 201 200 198 197 196 197 197 199 201 202 205 207 209 211 212 214 215 214 212 210 210 210 209 209 210 210
216 215 213 214 215 214 213 212 211 209 206 203 202 201 201 201 201 199 197 195 195 197 199 200 202 204 205 207 208 210 211 212 214 213 212 211 210 209 208 209 210 211
214 214 213 213 213 212 211 211 209 208 205 203 201 201 201 201 200 198 196 196 197 198 199 201 203 205 206 207 209 211 211 211 211 211 211 211 211 210 210 210 211 212
212 213 213 213 212 211 210 209 208 206 205 203 200 200 201 201 199 196 195 198 199 199 200 202 204 205 206 208 209 212 213 213 213 212 211 211 212 212 212 213 214 214
212 213 214 214 212 210 208 208 208 206 204 202 200 200 199 198 197 196 196 198 199 201 203 204 206 207 208 209 211 213 214 214 215 215 215 213 213 212 214 215 215 216
211 213 215 216 213 210 208 208 209 207 204 202 201 200 198 197 197 196 197 199 200 202 205 207 209 210 211 212 213 213 213 213 215 216 216 216 216 215 216 216 217 217
212 213 216 217 214 210 209 209 209 207 204 202 201 200 199 198 198 198 199 200 202 204 206 209 210 212 213 214 215 215 215 215 216 216 217 218 217 217 219 220 220 221
213 214 216 217 214 211 210 209 208 207 204 202 201 201 201 201 201 201 201 202 203 205 208 210 212 213 214 216 217 217 217 217 218 219 219 219 219 219 221 221 222 224
213 215 217 216 212 210 210 209 208 207 205 202 201 202 203 204 204 203 203 204 205 207 209 212 213 214 215 216 218 218 219 219 220 221 221 221 221 222 223 223 224 225
213 215 216 215 212 211 211 210 209 207 205 203 202 204 205 206 206 206 206 207 207 208 210 214 215 215 216 217 218 219 221 221 222 223 223 224 224 225 226 226 227 227
213 215 215 214 213 214 214 213 211 209 207 205 204 206 207 207 207 208 209 209 209 211 213 216 218 218 218 220 221 222 224 225 225 225 225 226 226 227 228 228 229 229
213 215 215 215 215 217 217 216 214 212 210 208 208 210 210 209 210 210 210 211 211 213 216 219 222 222 222 223 224 225 227 228 228 228 228 228 228 229 230 231 231 232
213 214 215 216 216 217 218 218 217 216 214 212 212 213 212 212 213 214 214 214 215 216 218 221 223 223 223 224 225 226 229 230 231 231 231 231 232 232 234 234 235 236